Location: Unspecified
(0.0000°N, 0.0000°E)
Time: 20:11:07
(UTC+00:00)

ISS - Pass Details

Date: 15 February 2018
Orbit: 403 x 407 km, 51.6° (Epoch: 20 February)

Event Time Altitude Azimuth Distance (km) Brightness Sun altitude
Rises 19:52:44 0° 321° (NW) 2,302 0.3 -24.0°
Reaches altitude 10° 19:54:48 10° 319° (NW) 1,447 -0.7 -24.5°
Enters shadow 19:55:31 16° 317° (NW) 1,156 -1.2 -24.7°
